Location: Cypress Hills Dark-Sky Preserve - CHICO
(49.6176°N, 110.2634°W)
Time: 08:55:10
(UTC-06:00)

Amateur Radio Satellites - All Passes

Search period start: 23 May 2015 08:25
Search period end: 24 May 2015 08:25
Location: Cypress Hills Dark-Sky Preserve - CHICO, 49.6176°N, 110.2634°W

Satellite Date Start Highest point End Downlink Frequencies (MHz)
Time Altitude Azimuth
AUBIESAT-1 23 May 08:32:43 08:35:45 19° 262° (W) 08:38:33 437.475
GOMX 1 23 May 08:36:02 08:39:40 18° 85° (E) 08:43:23 467.674
YUBILEINY 23 May 08:41:33 08:50:16 73° 95° (E) 08:59:00 435.215
ISS 23 May 08:43:20 08:45:06 14° 222° (SW) 08:46:47 145.825
RS-15 23 May 08:58:30 09:06:11 24° 102° (ESE) 09:14:29 29.354- 29.394
CANX-2 23 May 08:59:58 09:02:28 16° 88° (E) 09:05:06 2200.000
STRAND 1 23 May 09:00:52 09:03:51 15° 274° (W) 09:06:37 437.568
PCSat 23 May 09:01:11 09:05:01 19° 25° (NNE) 09:08:54 145.827
CUTE 1.7 + AOD 2 23 May 09:04:11 09:06:41 16° 88° (E) 09:09:20 437.475
UNISAT 6 23 May 09:07:46 09:08:22 10° 54° (NE) 09:09:12 437.425
AIST 1 23 May 09:15:48 09:20:04 54° 265° (W) 09:24:20
SO-50 23 May 09:20:36 09:23:14 14° 358° (N) 09:25:53 436.795
HO-68 23 May 09:22:50 09:29:11 34° 93° (E) 09:35:36 435.675
CUTE-I 23 May 09:27:39 09:31:49 23° 301° (WNW) 09:35:52 437.470
SEEDS 23 May 09:32:50 09:36:17 25° 93° (E) 09:39:45 437.485
Cosmos 2491 23 May 09:41:43 09:48:26 24° 282° (WNW) 09:54:50 435.465 / 435.565
Cubesat XI-IV 23 May 09:47:29 09:50:54 17° 305° (NW) 09:54:10 437.490
ANTELSAT 23 May 09:47:35 09:51:08 22° 62° (ENE) 09:54:44 437.575/2403.000
BRITE-PL 23 May 09:48:47 09:54:33 85° 286° (WNW) 10:00:10 437.365/2234.400
CUBEBUG 2 23 May 09:50:08 09:52:13 13° 84° (E) 09:54:28 437.445
COMPASS 1 23 May 09:52:43 09:56:26 31° 95° (E) 10:00:10 437.405
PHONESAT 2.4 23 May 09:54:41 09:55:43 11° 200° (SSW) 09:56:42 2401.200-2431.200
DOVE 4 23 May 09:56:24 10:01:36 56° 99° (E) 10:06:33 437.250
POLYITAN 1 23 May 09:58:41 10:00:47 14° 58° (ENE) 10:03:02 437.675
QB50P1 23 May 09:59:08 10:01:10 14° 58° (ENE) 10:03:21 145.935-145.965
BUGSAT 1 23 May 10:04:00 10:04:24 10° 55° (NE) 10:04:59 437.445
CINEMA 3 23 May 10:05:35 10:10:02 35° 94° (E) 10:14:21 145.822/145.860
AAUSAT CUBESAT 2 23 May 10:08:23 10:12:17 39° 97° (E) 10:16:11 437.432
ZACube-1 23 May 10:10:16 10:12:17 13° 85° (E) 10:14:28 437.345
GOMX 1 23 May 10:12:58 10:18:30 78° 286° (WNW) 10:23:48 467.674
TIGRISAT 23 May 10:21:24 10:25:47 40° 68° (ENE) 10:30:10 435.000
NANOSAT C BR1 23 May 10:30:25 10:33:51 24° 64° (ENE) 10:37:22 145.865
Oscar 11 23 May 10:31:07 10:35:01 33° 95° (E) 10:38:57 145.826/435.025
CANX-2 23 May 10:34:40 10:38:52 61° 287° (WNW) 10:43:01 2200.000
QB50P2 23 May 10:35:03 10:38:41 28° 65° (ENE) 10:42:22 145.880/145.840
CUTE 1.7 + AOD 2 23 May 10:38:53 10:43:04 61° 288° (WNW) 10:47:13 437.475
HUMSAT D 23 May 10:39:01 10:40:25 12° 85° (E) 10:42:02 437.325/437.525
UNISAT 6 23 May 10:39:41 10:44:19 60° 72° (ENE) 10:48:56 437.425
Cosmos 2504 23 May 10:39:58 10:47:47 47° 90° (E) 10:55:12 435.465 / 435.565
YUBILEINY 23 May 10:40:19 10:48:01 32° 299° (WNW) 10:55:33 435.215
PCSat 23 May 10:44:12 10:49:36 59° 49° (NE) 10:54:58 145.827
UWE-3 23 May 10:44:58 10:49:05 35° 95° (E) 10:53:06 435.000/436.395/437.385
POPSAT HIP 1 23 May 10:48:05 10:51:58 35° 68° (ENE) 10:55:56 437.405
DUCHIFAT 1 23 May 10:53:25 10:57:22 38° 68° (ENE) 11:01:22 145.980
SO-50 23 May 11:01:55 11:05:34 20° 22° (NNE) 11:09:17 436.795
DELFI C3 23 May 11:03:28 11:07:24 52° 100° (E) 11:11:19 145.870
RS-15 23 May 11:06:03 11:16:56 80° 125° (SE) 11:28:13 29.354- 29.394
FUNcube-1 23 May 11:06:12 11:10:26 43° 97° (E) 11:14:32 145.935
SEEDS 23 May 11:08:19 11:12:13 37° 291° (WNW) 11:16:03 437.485
HO-68 23 May 11:10:19 11:17:21 59° 295° (WNW) 11:24:19 435.675
ANTELSAT 23 May 11:22:57 11:27:35 56° 260° (W) 11:32:12 437.575/2403.000
CUBEBUG 2 23 May 11:25:02 11:29:39 81° 285° (WNW) 11:34:05 437.445
COMPASS 1 23 May 11:28:27 11:32:06 29° 293° (WNW) 11:35:40 437.405
BRITE-PL 23 May 11:28:28 11:32:18 18° 304° (NW) 11:35:57 437.365/2234.400
POLYITAN 1 23 May 11:31:47 11:36:06 87° 256° (WSW) 11:40:28 437.675
QB50P1 23 May 11:32:09 11:36:26 88° 255° (WSW) 11:40:47 145.935-145.965
DOVE 4 23 May 11:34:39 11:39:00 26° 298° (WNW) 11:43:08 437.250
BUGSAT 1 23 May 11:35:00 11:39:07 70° 73° (ENE) 11:43:20 437.445
CINEMA 3 23 May 11:42:48 11:47:14 34° 294° (WNW) 11:51:27 145.822/145.860
ESTCUBE 1 23 May 11:43:22 11:46:30 19° 89° (E) 11:49:45 437.505/2401.250
AAUSAT CUBESAT 2 23 May 11:44:22 11:47:44 24° 295° (WNW) 11:51:03 437.432
ZACube-1 23 May 11:44:52 11:49:19 78° 286° (WNW) 11:53:37 437.345
GOMX 1 23 May 11:52:28 11:55:47 16° 305° (NW) 11:58:54 467.674
UKube-1 23 May 11:55:18 11:59:39 63° 102° (ESE) 12:03:58 .
VELOX 1 23 May 11:56:07 12:00:18 37° 97° (E) 12:04:28 145.980
DX 1 23 May 11:57:53 12:02:19 72° 103° (ESE) 12:06:43 434.975-435.025
TIGRISAT 23 May 11:58:33 12:02:39 28° 267° (W) 12:06:41 435.000
NANOSAT C BR1 23 May 12:05:25 12:09:29 42° 262° (W) 12:13:35 145.865
CUBEBUG 1 23 May 12:06:27 12:10:13 26° 93° (E) 12:14:00 437.445
Oscar 11 23 May 12:07:23 12:11:10 30° 294° (WNW) 12:14:53 145.826/435.025
QB50P2 23 May 12:10:28 12:14:28 36° 263° (W) 12:18:29 145.880/145.840
HUMSAT D 23 May 12:12:37 12:16:51 82° 287° (WNW) 12:21:00 437.325/437.525
UNISAT 6 23 May 12:18:04 12:21:30 19° 271° (W) 12:24:49 437.425
UWE-3 23 May 12:21:36 12:25:34 30° 294° (WNW) 12:29:22 435.000/436.395/437.385
POPSAT HIP 1 23 May 12:24:10 12:27:55 28° 266° (W) 12:31:38 437.405
AISAT 23 May 12:26:04 12:30:35 74° 103° (ESE) 12:35:05 437.250
Oscar 19 23 May 12:27:19 12:31:06 21° 59° (ENE) 12:35:00 437.125/150
PCSat 23 May 12:28:08 12:32:43 28° 249° (WSW) 12:37:12 145.827
DUCHIFAT 1 23 May 12:29:42 12:33:18 25° 267° (W) 12:36:52 145.980
50 SAT 23 May 12:30:40 12:34:37 86° 286° (WNW) 12:38:29 437.505
Cosmos 2504 23 May 12:33:20 12:41:18 45° 290° (WNW) 12:48:42 435.465 / 435.565
DELFI C3 23 May 12:39:23 12:42:12 18° 297° (WNW) 12:44:56 145.870
SO-50 23 May 12:42:09 12:47:06 60° 45° (NE) 12:52:00 436.795
FUNcube-1 23 May 12:42:57 12:46:32 24° 297° (WNW) 12:50:00 145.935
Gurwin Techsat 1B 23 May 12:49:02 12:50:38 12° 50° (NE) 12:52:28 435.225
HO-68 23 May 12:59:29 13:03:49 17° 316° (NW) 13:07:53 435.675
SPROUT 23 May 13:01:04 13:04:49 28° 94° (E) 13:08:36 437.525
CUBEBUG 2 23 May 13:03:29 13:05:37 13° 304° (NW) 13:07:33 437.445
CUSAT 1 23 May 13:08:09 13:14:15 30° 84° (E) 13:21:11 437.405
GONETS M04 23 May 13:11:16 13:18:30 31° 82° (E) 13:25:58
POLYITAN 1 23 May 13:11:38 13:12:47 11° 276° (W) 13:13:41 437.675
QB50P1 23 May 13:11:59 13:13:04 11° 276° (W) 13:13:56 145.935-145.965
BUGSAT 1 23 May 13:12:56 13:15:09 14° 273° (W) 13:17:14 437.445
ESTCUBE 1 23 May 13:19:19 13:23:47 58° 288° (WNW) 13:28:13 437.505/2401.250
RS-15 23 May 13:19:53 13:30:26 47° 334° (NNW) 13:41:23 29.354- 29.394
ZACube-1 23 May 13:23:15 13:24:57 12° 304° (NW) 13:26:28 437.345
UKube-1 23 May 13:32:22 13:35:23 18° 300° (WNW) 13:38:18 .
VELOX 1 23 May 13:32:51 13:36:45 29° 295° (WNW) 13:40:36 145.980
DX 1 23 May 13:35:14 13:38:05 17° 301° (WNW) 13:40:49 434.975-435.025
AO-7 23 May 13:36:17 13:41:14 18° 37° (NE) 13:46:26 29.400- 29.500
TISAT 1 23 May 13:40:00 13:44:12 50° 99° (E) 13:48:22 437.305
CUBEBUG 1 23 May 13:42:32 13:46:42 39° 292° (WNW) 13:50:50 437.445
HUMSAT D 23 May 13:50:25 13:51:56 12° 303° (WNW) 13:53:17 437.325/437.525
DANDE 23 May 13:51:14 13:57:48 45° 89° (E) 14:05:39 436.750
AISAT 23 May 14:03:45 14:06:41 17° 301° (WNW) 14:09:28 437.250
Oscar 19 23 May 14:04:48 14:10:00 71° 257° (WSW) 14:15:14 437.125/150
50 SAT 23 May 14:07:37 14:08:42 11° 302° (WNW) 14:09:38 437.505
ITAMSAT 1 23 May 14:10:14 14:15:09 47° 68° (ENE) 14:20:08 435.822/435.867
ITUPSAT 1 23 May 14:13:49 14:17:25 21° 91° (E) 14:21:06 437.325
SO-50 23 May 14:23:13 14:27:22 26° 244° (WSW) 14:31:24 436.795
BEESAT 23 May 14:23:53 14:27:52 26° 93° (E) 14:31:55 436.000
Gurwin Techsat 1B 23 May 14:24:27 14:29:37 57° 70° (ENE) 14:34:51 435.225
SWISSCUBE 23 May 14:31:31 14:35:50 33° 96° (E) 14:40:10 437.505
Cosmos 2504 23 May 14:34:41 14:37:12 11° 316° (NW) 14:39:17 435.465 / 435.565
SPROUT 23 May 14:36:59 14:40:59 35° 292° (WNW) 14:44:55 437.525
CUSAT 1 23 May 14:48:59 14:56:17 74° 286° (WNW) 15:04:39 437.405
GONETS M04 23 May 15:05:53 15:14:43 72° 284° (WNW) 15:23:37
TISAT 1 23 May 15:16:24 15:19:41 21° 298° (WNW) 15:22:52 437.305
Cosmos 2499 23 May 15:21:10 15:28:14 35° 87° (E) 15:35:00 435.465 / 435.565
JAS-2 23 May 15:24:17 15:30:32 44° 67° (ENE) 15:36:08 435.910
AO-7 23 May 15:24:25 15:32:22 54° 60° (ENE) 15:40:25 29.400- 29.500
HORYU 2 23 May 15:25:50 15:30:00 39° 67° (ENE) 15:34:12 437.375
KKS-1 23 May 15:31:44 15:35:21 24° 92° (E) 15:39:01 437.445
DANDE 23 May 15:34:03 15:41:01 51° 293° (WNW) 15:49:13 436.750
RS-15 23 May 15:35:49 15:46:04 38° 7° (N) 15:56:48 29.354- 29.394
Oscar 19 23 May 15:48:59 15:50:26 11° 278° (W) 15:51:35 437.125/150
ITAMSAT 1 23 May 15:50:25 15:54:54 28° 267° (W) 15:59:19 435.822/435.867
ITUPSAT 1 23 May 15:50:59 15:55:41 55° 290° (WNW) 16:00:21 437.325
BEESAT 23 May 16:01:22 16:05:55 44° 292° (WNW) 16:10:26 436.000
O/OREOS (USA 219) 23 May 16:02:37 16:04:28 13° 99° (E) 16:06:32 437.305
Gurwin Techsat 1B 23 May 16:05:41 16:10:01 24° 269° (W) 16:14:15 435.225
SWISSCUBE 23 May 16:09:22 16:13:43 36° 294° (WNW) 16:18:03 437.505
CUSAT 1 23 May 16:34:47 16:40:40 22° 310° (NW) 16:46:41 437.405
MOZHAYETS 4 23 May 16:35:22 16:35:27 10° 83° (E) 16:35:48
STARS 23 May 16:45:05 16:49:34 76° 103° (ESE) 16:54:00 437.465
YUBILEINY 23 May 16:51:33 16:54:45 12° 40° (NE) 16:58:23 435.215
HORYU 2 23 May 17:02:55 17:06:46 27° 266° (W) 17:10:35 437.375
GONETS M04 23 May 17:07:14 17:13:35 20° 310° (NW) 17:19:37
KKS-1 23 May 17:07:54 17:12:13 44° 291° (WNW) 17:16:28 437.445
JAS-2 23 May 17:09:25 17:15:44 39° 264° (W) 17:21:20 435.910
Cosmos 2499 23 May 17:13:09 17:21:09 57° 286° (WNW) 17:28:35 435.465 / 435.565
AO-7 23 May 17:17:34 17:25:25 44° 262° (W) 17:33:17 29.400- 29.500
DANDE 23 May 17:22:05 17:26:45 16° 318° (NW) 17:31:20 436.750
CUTE-I 23 May 17:34:20 17:38:48 29° 62° (ENE) 17:43:22 437.470
O/OREOS (USA 219) 23 May 17:38:45 17:43:18 86° 302° (WNW) 17:47:50 437.305
RS-15 23 May 17:49:48 18:01:08 63° 38° (NE) 18:13:01 29.354- 29.394
Cubesat XI-IV 23 May 17:53:12 17:58:06 40° 65° (ENE) 18:03:04 437.490
MOZHAYETS 4 23 May 18:08:59 18:13:35 78° 104° (ESE) 18:18:09
HO-68 23 May 18:14:11 18:16:32 12° 38° (NE) 18:19:10 435.675
STARS 23 May 18:22:44 18:25:30 16° 302° (WNW) 18:28:08 437.465
YUBILEINY 23 May 18:46:21 18:54:37 46° 68° (ENE) 19:02:56 435.215
Cosmos 2491 23 May 18:56:36 19:02:38 22° 77° (ENE) 19:09:01 435.465 / 435.565
BEESAT 2 23 May 19:05:48 19:08:14 16° 113° (ESE) 19:10:51 435.950
Cosmos 2499 23 May 19:12:13 19:16:18 14° 311° (NW) 19:19:54 435.465 / 435.565
CUTE-I 23 May 19:13:31 19:18:41 51° 261° (W) 19:23:53 437.470
O/OREOS (USA 219) 23 May 19:20:35 19:23:28 16° 319° (NW) 19:26:14 437.305
PRISM 23 May 19:25:22 19:28:22 20° 91° (E) 19:31:29 437.425
STRAND 1 23 May 19:25:33 19:29:21 21° 90° (E) 19:33:16 437.568
BRITE-PL 23 May 19:26:16 19:30:35 28° 62° (ENE) 19:35:14 437.365/2234.400
DOVE 4 23 May 19:30:37 19:33:41 16° 56° (NE) 19:36:57 437.250
Cubesat XI-IV 23 May 19:33:25 19:38:18 35° 265° (W) 19:43:09 437.490
CUBESAT XI-V 23 May 19:37:05 19:41:43 56° 100° (E) 19:46:21 437.345
CINEMA 3 23 May 19:39:02 19:39:28 10° 52° (NE) 19:40:09 145.822/145.860
MOZHAYETS 4 23 May 19:47:26 19:50:17 16° 301° (WNW) 19:53:01
GOMX 1 23 May 19:47:49 19:52:13 29° 63° (ENE) 19:56:53 467.674
HO-68 23 May 19:55:58 20:02:32 41° 60° (ENE) 20:09:11 435.675
CANX-2 23 May 19:57:02 20:00:13 21° 63° (ENE) 20:03:28 2200.000
M-CUBED/EXP-1 PRIME 23 May 19:57:32 19:58:59 12° 95° (E) 20:00:33 437.505
BEESAT 3 23 May 19:58:07 20:02:07 55° 124° (SE) 20:06:10 437.485
CUTE 1.7 + AOD 2 23 May 20:01:11 20:04:21 21° 63° (ENE) 20:07:36 437.475
RS-15 23 May 20:02:32 20:13:40 55° 244° (WSW) 20:25:08 29.354- 29.394
AUBIESAT-1 23 May 20:08:55 20:10:50 15° 96° (E) 20:12:49 437.475
AIST 2 23 May 20:08:56 20:12:08 21° 115° (ESE) 20:15:24 435.215
Cosmos 2504 23 May 20:27:29 20:32:43 21° 55° (NE) 20:38:02 435.465 / 435.565
SEEDS 23 May 20:29:00 20:32:43 31° 67° (ENE) 20:36:28 437.485
FUNcube-1 23 May 20:34:33 20:34:39 10° 54° (NE) 20:34:59 145.935
BEESAT 2 23 May 20:41:44 20:45:52 75° 311° (NW) 20:50:02 435.950
YUBILEINY 23 May 20:43:21 20:51:37 49° 271° (W) 20:59:47 435.215
COMPASS 1 23 May 20:48:00 20:51:53 38° 69° (ENE) 20:55:48 437.405
Cosmos 2491 23 May 20:49:32 20:58:22 86° 97° (E) 21:07:16 435.465 / 435.565
CUBEBUG 2 23 May 20:51:50 20:55:23 22° 62° (ENE) 20:59:02 437.445
PRISM 23 May 21:00:07 21:04:06 47° 290° (WNW) 21:08:06 437.425
AAUSAT CUBESAT 2 23 May 21:03:11 21:07:11 47° 71° (ENE) 21:11:13 437.432
BRITE-PL 23 May 21:03:53 21:08:49 51° 263° (W) 21:14:09 437.365/2234.400
STRAND 1 23 May 21:03:57 21:09:02 63° 289° (WNW) 21:14:07 437.568
DOVE 4 23 May 21:05:34 21:10:40 84° 77° (ENE) 21:16:02 437.250
ZACube-1 23 May 21:09:50 21:13:11 21° 62° (ENE) 21:16:37 437.345
CINEMA 3 23 May 21:10:49 21:15:39 53° 71° (ENE) 21:20:35 145.822/145.860
CUBESAT XI-V 23 May 21:15:13 21:18:50 22° 298° (WNW) 21:22:22 437.345
UKube-1 23 May 21:20:47 21:22:56 14° 57° (ENE) 21:25:14 .
DX 1 23 May 21:23:38 21:26:11 16° 58° (ENE) 21:28:52 434.975-435.025
GOMX 1 23 May 21:25:08 21:30:06 49° 263° (W) 21:35:22 467.674
Oscar 11 23 May 21:29:53 21:34:01 45° 70° (ENE) 21:38:11 145.826/435.025
M-CUBED/EXP-1 PRIME 23 May 21:30:58 21:34:16 49° 295° (WNW) 21:37:28 437.505
CANX-2 23 May 21:31:42 21:35:52 49° 261° (W) 21:40:02 2200.000
HUMSAT D 23 May 21:34:30 21:37:14 17° 61° (ENE) 21:40:05 437.325/437.525
CUTE 1.7 + AOD 2 23 May 21:35:50 21:39:59 49° 261° (W) 21:44:09 437.475
BEESAT 3 23 May 21:36:49 21:40:23 27° 325° (NW) 21:43:55 437.485
AUBIESAT-1 23 May 21:42:43 21:45:56 41° 296° (WNW) 21:49:04 437.475
HO-68 23 May 21:43:12 21:50:12 51° 260° (W) 21:57:11 435.675
UWE-3 23 May 21:45:45 21:50:17 50° 70° (ENE) 21:54:49 435.000/436.395/437.385
AIST 2 23 May 21:46:08 21:50:22 60° 314° (NW) 21:54:38 435.215
50 SAT 23 May 21:47:17 21:49:01 13° 59° (ENE) 21:50:52 437.505
AIST 1 23 May 21:49:25 21:53:39 69° 97° (E) 21:57:56
AISAT 23 May 21:53:33 21:56:19 17° 59° (ENE) 21:59:13 437.250
DELFI C3 23 May 21:54:48 21:58:46 58° 72° (ENE) 22:02:44 145.870
SEEDS 23 May 22:04:43 22:08:31 31° 265° (W) 22:12:16 437.485
FUNcube-1 23 May 22:05:37 22:10:09 60° 72° (ENE) 22:14:41 145.935
RS-15 23 May 22:18:31 22:23:44 13° 265° (W) 22:28:01 29.354- 29.394
Cosmos 2504 23 May 22:20:01 22:27:24 89° 80° (E) 22:34:36 435.465 / 435.565
BEESAT 2 23 May 22:21:41 22:24:39 18° 333° (NNW) 22:27:34 435.950
COMPASS 1 23 May 22:24:14 22:27:42 24° 268° (W) 22:31:07 437.405
CUBEBUG 2 23 May 22:26:59 22:31:43 60° 260° (W) 22:36:27 437.445
AAUSAT CUBESAT 2 23 May 22:39:57 22:43:04 20° 269° (W) 22:46:07 437.432
ZACube-1 23 May 22:44:37 22:49:11 59° 260° (W) 22:53:44 437.345
STRAND 1 23 May 22:45:16 22:47:21 12° 308° (NW) 22:49:14 437.568
DOVE 4 23 May 22:45:59 22:49:13 16° 276° (W) 22:52:19 437.250
DANDE 23 May 22:45:59 22:50:34 16° 42° (NE) 22:55:12 436.750
ESTCUBE 1 23 May 22:47:03 22:50:54 29° 65° (ENE) 22:54:48 437.505/2401.250
CINEMA 3 23 May 22:49:04 22:53:10 24° 270° (W) 22:57:13 145.822/145.860
Cosmos 2491 23 May 22:49:16 22:56:34 27° 303° (WNW) 23:03:41 435.465 / 435.565
UKube-1 23 May 22:54:09 22:58:30 87° 259° (W) 23:02:52 .
DX 1 23 May 22:57:33 23:01:55 76° 255° (WSW) 23:06:20 434.975-435.025
VELOX 1 23 May 22:57:44 23:02:05 57° 71° (ENE) 23:06:28 145.980
CUBEBUG 1 23 May 23:06:41 23:10:41 37° 68° (ENE) 23:14:46 437.445
Oscar 11 23 May 23:06:59 23:10:26 22° 269° (W) 23:13:48 145.826/435.025
HUMSAT D 23 May 23:08:13 23:12:33 67° 258° (WSW) 23:16:52 437.325/437.525
ANTELSAT 23 May 23:11:17 23:14:45 22° 91° (E) 23:18:14 437.575/2403.000
GONETS M04 23 May 23:14:42 23:20:51 21° 51° (NE) 23:27:15
POLYITAN 1 23 May 23:14:57 23:16:28 12° 85° (E) 23:18:11 437.675
QB50P1 23 May 23:15:02 23:16:29 12° 85° (E) 23:18:07 145.935-145.965
BEESAT 3 23 May 23:18:23 23:19:41 11° 348° (NNW) 23:20:56 437.485
50 SAT 23 May 23:19:10 23:23:12 83° 259° (WSW) 23:27:13 437.505
UWE-3 23 May 23:23:17 23:27:04 23° 269° (W) 23:30:47 435.000/436.395/437.385
AIST 2 23 May 23:26:55 23:29:48 17° 336° (NNW) 23:32:38 435.215
AISAT 23 May 23:27:57 23:32:24 73° 257° (WSW) 23:36:55 437.250
AIST 1 23 May 23:29:22 23:31:53 15° 298° (WNW) 23:34:17
DELFI C3 23 May 23:31:48 23:34:18 15° 272° (W) 23:36:40 145.870
CUSAT 1 23 May 23:41:16 23:48:12 32° 58° (ENE) 23:54:13 437.405
FUNcube-1 23 May 23:43:35 23:46:53 19° 271° (W) 23:50:03 145.935
TIGRISAT 23 May 23:45:20 23:49:38 45° 98° (E) 23:53:50 435.000
NANOSAT C BR1 23 May 23:46:14 23:49:40 23° 92° (E) 23:53:08 145.865
QB50P2 23 May 23:51:26 23:55:06 27° 94° (E) 23:58:46 145.880/145.840
SPROUT 23 May 23:59:16 00:03:15 38° 68° (ENE) 00:07:18 437.525
UNISAT 6 24 May 00:04:07 00:08:36 71° 103° (ESE) 00:12:56 437.425
POPSAT HIP 1 24 May 00:04:27 00:08:23 35° 96° (E) 00:12:20 437.405
SWISSCUBE 24 May 00:08:47 00:09:52 11° 53° (NE) 00:11:09 437.505
DUCHIFAT 1 24 May 00:09:18 00:13:18 38° 97° (E) 00:17:18 145.980
Cosmos 2504 24 May 00:14:53 00:19:49 19° 282° (WNW) 00:24:25 435.465 / 435.565
ESTCUBE 1 24 May 00:23:30 00:27:41 37° 263° (W) 00:31:52 437.505/2401.250
O/OREOS (USA 219) 24 May 00:27:47 00:29:08 11° 35° (NE) 00:30:37 437.305
DANDE 24 May 00:28:06 00:36:17 51° 67° (ENE) 00:43:14 436.750
UKube-1 24 May 00:34:15 00:35:24 11° 275° (W) 00:36:20 .
VELOX 1 24 May 00:35:52 00:39:02 19° 270° (W) 00:42:07 145.980
TISAT 1 24 May 00:36:07 00:40:19 66° 73° (ENE) 00:44:35 437.305
CUBEBUG 1 24 May 00:43:25 00:47:10 27° 267° (W) 00:50:54 437.445
ANTELSAT 24 May 00:47:32 00:51:49 45° 291° (WNW) 00:55:58 437.575/2403.000
BUGSAT 1 24 May 00:48:11 00:52:28 67° 102° (ESE) 00:56:43 437.445
QB50P1 24 May 00:48:42 00:53:03 85° 288° (WNW) 00:57:20 145.935-145.965
POLYITAN 1 24 May 00:48:43 00:53:04 84° 288° (WNW) 00:57:22 437.675
BEESAT 3 24 May 00:58:19 00:59:26 11° 11° (NNE) 01:00:36 437.485
Cosmos 2499 24 May 01:07:06 01:10:58 15° 50° (NE) 01:15:05 435.465 / 435.565
AIST 2 24 May 01:09:13 01:10:03 10° 359° (N) 01:10:53 435.215
GONETS M04 24 May 01:10:46 01:19:38 75° 77° (ENE) 01:28:23
NANOSAT C BR1 24 May 01:21:37 01:25:42 42° 291° (WNW) 01:29:43 145.865
TIGRISAT 24 May 01:22:33 01:26:10 24° 297° (WNW) 01:29:37 435.000
CUSAT 1 24 May 01:23:50 01:31:41 67° 264° (W) 01:38:00 437.405
ISS 24 May 01:24:29 01:26:50 19° 141° (SE) 01:29:13 145.825
ITUPSAT 1 24 May 01:24:37 01:29:02 40° 67° (ENE) 01:33:30 437.325
QB50P2 24 May 01:27:06 01:31:05 36° 292° (WNW) 01:34:59 145.880/145.840
PCSat 24 May 01:31:43 01:35:32 20° 108° (ESE) 01:39:32 145.827
BEESAT 24 May 01:34:23 01:38:57 49° 69° (ENE) 01:43:34 436.000
SPROUT 24 May 01:35:46 01:39:27 26° 267° (W) 01:43:07 437.525
POPSAT HIP 1 24 May 01:40:27 01:44:12 29° 295° (WNW) 01:47:52 437.405
BEESAT 2 24 May 01:41:57 01:44:08 14° 20° (NNE) 01:46:21 435.950
UNISAT 6 24 May 01:41:59 01:44:53 17° 301° (WNW) 01:47:37 437.425
SWISSCUBE 24 May 01:42:11 01:46:52 62° 71° (ENE) 01:51:35 437.505
DUCHIFAT 1 24 May 01:45:22 01:49:00 26° 295° (WNW) 01:52:33 145.980
O/OREOS (USA 219) 24 May 02:05:18 02:09:42 52° 58° (ENE) 02:14:05 437.305
DANDE 24 May 02:11:41 02:19:29 44° 271° (W) 02:26:01 436.750
STARS 24 May 02:11:42 02:14:30 17° 59° (ENE) 02:17:25 437.465
Oscar 19 24 May 02:12:16 02:16:45 30° 93° (E) 02:21:17 437.125/150
TISAT 1 24 May 02:14:04 02:16:36 15° 272° (W) 02:19:01 437.305
ITAMSAT 1 24 May 02:20:47 02:22:20 11° 83° (E) 02:24:10 435.822/435.867
BUGSAT 1 24 May 02:24:41 02:27:30 17° 300° (WNW) 02:30:11 437.445
QB50P1 24 May 02:26:21 02:28:17 13° 303° (WNW) 02:30:03 145.935-145.965
POLYITAN 1 24 May 02:26:27 02:28:20 12° 303° (WNW) 02:30:04 437.675
KKS-1 24 May 02:33:52 02:37:58 37° 67° (ENE) 02:42:09 437.445
BEESAT 3 24 May 02:35:18 02:38:47 26° 34° (NE) 02:42:15 437.485
Gurwin Techsat 1B 24 May 02:37:20 02:40:28 16° 86° (E) 02:43:48 435.225
AIST 2 24 May 02:47:37 02:50:20 16° 23° (NNE) 02:53:05 435.215
Cosmos 2499 24 May 02:58:45 03:05:52 68° 76° (ENE) 03:12:55 435.465 / 435.565
ISS 24 May 02:59:38 03:02:53 78° 159° (SSE) 03:06:10 145.825
ITUPSAT 1 24 May 03:02:52 03:07:02 29° 266° (W) 03:11:12 437.325
GONETS M04 24 May 03:08:28 03:15:46 29° 279° (W) 03:22:47
CUSAT 1 24 May 03:08:41 03:12:47 15° 286° (WNW) 03:16:12 437.405
PCSat 24 May 03:13:00 03:18:26 77° 307° (NW) 03:23:55 145.827
BEESAT 24 May 03:13:12 03:17:05 24° 268° (W) 03:20:53 436.000
BEESAT 2 24 May 03:19:17 03:23:16 43° 43° (NE) 03:27:11 435.950
SWISSCUBE 24 May 03:21:46 03:25:11 19° 271° (W) 03:28:31 437.505
AO-7 24 May 03:25:14 03:26:08 10° 77° (ENE) 03:27:47 29.400- 29.500
MOZHAYETS 4 24 May 03:39:53 03:42:53 18° 60° (ENE) 03:46:00
O/OREOS (USA 219) 24 May 03:45:24 03:48:48 21° 257° (WSW) 03:52:05 437.305
STARS 24 May 03:46:02 03:50:28 72° 257° (WSW) 03:54:57 437.465
Oscar 19 24 May 03:51:23 03:56:18 45° 293° (WNW) 04:01:10 437.125/150
ITAMSAT 1 24 May 03:57:38 04:02:53 74° 103° (ESE) 04:08:07 435.822/435.867
KKS-1 24 May 04:10:46 04:14:41 29° 266° (W) 04:18:36 437.445
BEESAT 3 24 May 04:13:01 04:17:04 58° 235° (SW) 04:21:03 437.485
JAS-2 24 May 04:14:11 04:17:58 20° 89° (E) 04:21:52 435.910
Gurwin Techsat 1B 24 May 04:15:53 04:21:14 84° 289° (WNW) 04:26:34 435.225
AIST 2 24 May 04:25:36 04:29:48 56° 45° (NE) 04:33:56 435.215
VERMONT LUNAR 24 May 04:31:19 04:32:04 11° 162° (SSE) 04:32:51 437.305
ISS 24 May 04:36:11 04:39:25 57° 358° (N) 04:42:40 145.825
SO-50 24 May 04:40:53 04:45:15 39° 120° (ESE) 04:49:47 436.795
HORYU 2 24 May 04:48:59 04:53:12 42° 98° (E) 04:57:25 437.375
Cosmos 2499 24 May 04:52:45 04:58:27 26° 277° (W) 05:03:54 435.465 / 435.565
BEESAT 2 24 May 04:57:38 05:01:13 28° 242° (WSW) 05:04:42 435.950
PCSat 24 May 04:58:31 05:02:46 22° 330° (NNW) 05:06:58 145.827
Cosmos 2491 24 May 04:59:01 05:03:46 16° 44° (NE) 05:08:53 435.465 / 435.565
CUBESAT XI-V 24 May 05:10:10 05:12:27 14° 57° (ENE) 05:14:54 437.345
AO-7 24 May 05:13:15 05:21:22 52° 101° (E) 05:29:30 29.400- 29.500
MOZHAYETS 4 24 May 05:15:05 05:19:40 69° 258° (WSW) 05:24:14
ITAMSAT 1 24 May 05:38:04 05:41:54 21° 302° (WNW) 05:45:38 435.822/435.867
PHONESAT 2.4 24 May 05:57:02 05:58:47 13° 164° (SSE) 06:00:34 2401.200-2431.200
Gurwin Techsat 1B 24 May 05:57:12 06:00:31 17° 305° (NW) 06:03:41 435.225
JAS-2 24 May 05:58:31 06:03:42 60° 290° (WNW) 06:08:49 435.910
AIST 2 24 May 06:04:46 06:08:04 22° 245° (WSW) 06:11:16 435.215
VERMONT LUNAR 24 May 06:06:25 06:08:32 16° 179° (S) 06:10:39 437.305
Cubesat XI-IV 24 May 06:08:45 06:09:30 10° 82° (E) 06:10:37 437.490
ISS 24 May 06:12:42 06:15:59 87° 200° (SSW) 06:19:16 145.825
PRISM 24 May 06:19:35 06:23:00 26° 65° (ENE) 06:26:29 437.425
SO-50 24 May 06:21:14 06:25:48 42° 321° (NW) 06:30:29 436.795
HORYU 2 24 May 06:25:58 06:29:41 26° 297° (WNW) 06:33:19 437.375
CUBESAT XI-V 24 May 06:44:39 06:49:15 87° 76° (ENE) 06:53:55 437.345
STRAND 1 24 May 06:45:25 06:50:14 46° 68° (ENE) 06:55:09 437.568
PCSat 24 May 06:45:59 06:48:16 12° 356° (N) 06:50:32 145.827
M-CUBED/EXP-1 PRIME 24 May 06:48:10 06:52:12 46° 65° (ENE) 06:55:58 437.505
Cosmos 2491 24 May 06:54:34 07:03:16 56° 72° (ENE) 07:11:54 435.465 / 435.565
AUBIESAT-1 24 May 06:59:24 07:03:28 52° 66° (ENE) 07:07:14 437.475
AO-7 24 May 07:06:17 07:14:11 47° 302° (WNW) 07:22:00 29.400- 29.500
CUTE-I 24 May 07:25:53 07:31:03 46° 98° (E) 07:36:13 437.470
PHONESAT 2.4 24 May 07:33:42 07:36:10 18° 181° (S) 07:38:39 2401.200-2431.200
VERMONT LUNAR 24 May 07:43:38 07:45:01 12° 195° (SSW) 07:46:22 437.305
Cubesat XI-IV 24 May 07:45:26 07:50:47 67° 102° (ESE) 07:56:09 437.490
JAS-2 24 May 07:46:17 07:47:51 11° 311° (NW) 07:49:09 435.910
ISS 24 May 07:49:28 07:52:06 22° 217° (SW) 07:54:42 145.825
AIST 1 24 May 07:52:11 07:55:58 28° 69° (ENE) 07:59:47
YUBILEINY 24 May 07:52:56 08:01:00 44° 87° (E) 08:09:08 435.215
PRISM 24 May 07:54:35 07:58:22 34° 263° (W) 08:02:08 437.425
SO-50 24 May 08:04:23 08:07:36 17° 344° (NNW) 08:10:49 436.795
